Nuiqsut, AK

11:37 AM AKST on December 15, 2017 (GMT -0900)
Nuiqsut

Weather History for PAQT - November, 2012

Change the Weather History Date:

Friday, November 9, 2012

  Actual Average (PAKU) Record (PAKU)
Temperature  
Mean Temperature 8 °F -  
Max Temperature 19 °F 4 °F 37 °F (2013)
Min Temperature -4 °F 0 °F -31 °F (1989)
Degree Days  
Heating Degree Days 58    
Moisture  
Dew Point 10 °F    
Average Humidity 90    
Maximum Humidity 96    
Minimum Humidity 84    
Precipitation  
Precipitation 0.00 in - - ()
Sea Level Pressure  
Sea Level Pressure 30.08 in    
Wind  
Wind Speed 12 mph (SW)    
Max Wind Speed 16 mph    
Max Gust Speed -    
Visibility 8 miles    
Events Snow    
Averages and records for this station are not official NWS values.
T = Trace of Precipitation, MM = Missing Value Source: NWS Daily Summary

Daily Weather History Graph

Daily Weather History Graph

Search for Another Location

Airport or City:

Trip Planner

Search our weather history database for the weather conditions in past years. The results will help you decide how hot, cold, wet, or windy it might be!

Date:

Astronomy

Nov. 09, 2012 Rise Set
Actual Time 10:25 AM AKST 3:09 PM AKST
Civil Twilight 8:56 AM AKST 4:37 PM AKST
Nautical Twilight 7:37 AM AKST 5:57 PM AKST
Astronomical Twilight 6:24 AM AKST 7:09 PM AKST
Moon 2:49 AM AKST (11/9) 2:54 PM AKST (11/9)
Length of Visible Light 7h 41m
Length of Day
4h 44m
Waning Crescent, 22% of the Moon is Illuminated
Nov 9
Waning Crescent
Nov 13
New
Nov 20
First Quarter
Nov 28
Full
Dec 6
Last Quarter

Hourly Weather History & Observations

Time (AKST) Temp. Windchill Dew Point Humidity Pressure Visibility Wind Dir Wind Speed Gust Speed Precip Events Conditions
12:08 AM -4.0 °F -22.1 °F -5.8 °F 92% 30.25 in 1.8 mi South 11.5 mph - N/A   Overcast
12:53 AM -0.0 °F -16.3 °F -0.9 °F 96% 30.25 in 10.0 mi South 10.4 mph - N/A   Overcast
1:34 AM 1.4 °F -14.5 °F -0.4 °F 92% 30.24 in 10.0 mi South 10.4 mph - N/A   Overcast
1:53 AM 1.9 °F -14.7 °F 1.0 °F 96% 30.24 in 10.0 mi South 11.5 mph - N/A   Overcast
3:53 AM 5.0 °F -10.8 °F 3.0 °F 92% 30.21 in 10.0 mi South 11.5 mph - N/A   Overcast
4:53 AM 5.0 °F -11.6 °F 3.0 °F 92% 30.19 in 10.0 mi South 12.7 mph - N/A   Overcast
5:53 AM 7.0 °F -9.1 °F 5.0 °F 92% 30.18 in 8.0 mi South 12.7 mph - N/A   Overcast
6:53 AM 7.0 °F -8.3 °F 5.0 °F 92% 30.17 in 10.0 mi South 11.5 mph - N/A   Overcast
7:20 AM 6.8 °F -6.9 °F 3.2 °F 85% 30.15 in 10.0 mi South 9.2 mph - N/A   Overcast
7:53 AM 8.1 °F -6.2 °F 5.0 °F 87% 30.15 in 10.0 mi South 10.4 mph - N/A   Overcast
8:08 AM 8.6 °F -6.3 °F 6.8 °F 92% 30.14 in 10.0 mi South 11.5 mph - N/A   Overcast
8:53 AM 9.0 °F -5.9 °F 7.0 °F 92% 30.13 in 10.0 mi SSW 11.5 mph - N/A   Overcast
9:53 AM 10.9 °F -3.4 °F 9.0 °F 92% 30.12 in 10.0 mi South 11.5 mph - N/A   Overcast
10:53 AM 10.9 °F -4.1 °F 9.0 °F 92% 30.10 in 10.0 mi South 12.7 mph - N/A   Overcast
11:53 AM 12.9 °F -1.6 °F 10.9 °F 92% 30.09 in 8.0 mi SSW 12.7 mph - 0.00 in Snow Light Snow
12:04 PM 12.2 °F -1.0 °F 10.4 °F 92% 30.09 in 8.0 mi South 10.4 mph - 0.00 in Snow Light Snow
12:53 PM 15.1 °F 1.8 °F 12.9 °F 91% 30.08 in 9.0 mi SSW 11.5 mph - 0.00 in   Overcast
1:05 PM 15.8 °F 3.4 °F 12.2 °F 86% 30.07 in 8.0 mi SSW 10.4 mph - N/A   Overcast
1:44 PM 17.6 °F 3.7 °F 14.0 °F 86% 30.05 in 1.8 mi SW 13.8 mph - 0.00 in Snow Light Snow
1:53 PM 17.1 °F 2.5 °F 14.0 °F 88% 30.05 in 1.5 mi SW 15.0 mph - 0.00 in Snow Light Snow
2:06 PM 17.6 °F 3.2 °F 14.0 °F 86% 30.04 in 2.0 mi SW 15.0 mph - 0.00 in Snow Light Snow
2:09 PM 17.6 °F 3.7 °F 14.0 °F 86% 30.04 in 1.5 mi SSW 13.8 mph - 0.00 in Snow Light Snow
2:26 PM 15.8 °F 2.1 °F 14.0 °F 93% 30.04 in 1.2 mi SW 12.7 mph - 0.00 in Snow Light Snow
2:36 PM 17.6 °F 3.7 °F 14.0 °F 86% 30.03 in 3.0 mi SW 13.8 mph - 0.00 in Snow Light Snow
2:53 PM 17.1 °F 3.0 °F 15.1 °F 92% 30.03 in 10.0 mi WSW 13.8 mph - 0.00 in   Overcast
3:53 PM 18.0 °F 3.6 °F 16.0 °F 92% 30.01 in 10.0 mi WSW 15.0 mph - 0.00 in   Overcast
4:04 PM 17.6 °F 3.2 °F 15.8 °F 93% 30.00 in 9.0 mi WSW 15.0 mph - 0.00 in Snow Light Snow
4:53 PM 18.0 °F 4.2 °F 17.1 °F 96% 30.00 in 10.0 mi West 13.8 mph - 0.00 in   Overcast
5:33 PM 19.4 °F 5.0 °F 17.6 °F 93% 29.99 in 10.0 mi WSW 16.1 mph - 0.00 in   Overcast
5:53 PM 19.0 °F 5.0 °F 17.1 °F 92% 29.99 in 10.0 mi WSW 15.0 mph - 0.00 in   Overcast
6:53 PM 19.9 °F 7.9 °F 19.0 °F 96% 29.99 in 7.0 mi West 11.5 mph - 0.00 in   Overcast
7:31 PM 15.8 °F 2.1 °F 14.0 °F 93% 29.97 in 10.0 mi WNW 12.7 mph - N/A   Overcast
7:53 PM 14.0 °F 0.5 °F 10.0 °F 84% 29.98 in 10.0 mi WNW 11.5 mph - N/A   Overcast
8:31 PM 12.2 °F -2.5 °F 8.6 °F 85% 29.97 in 10.0 mi West 12.7 mph - N/A   Overcast
8:53 PM 10.9 °F -4.1 °F 8.1 °F 88% 29.97 in 10.0 mi West 12.7 mph - N/A   Overcast
9:53 PM 10.9 °F -3.4 °F 8.1 °F 88% 29.97 in 10.0 mi West 11.5 mph - N/A   Overcast
10:53 PM 10.0 °F -4.5 °F 7.0 °F 87% 29.96 in 10.0 mi WSW 11.5 mph - N/A   Overcast
11:53 PM 10.9 °F -4.1 °F 8.1 °F 88% 29.96 in 10.0 mi WSW 12.7 mph - N/A   Overcast